User: anonymous   Login
Location: Unspecified
(0.0000°N, 0.0000°E)
Time: 10:28:47
(UTC+02:00)
Language:

NOAA 12 - Orbit

View from above orbital plane
View from above orbital plane
View from above satellite
View from above satellite

Ground track
Ground track

The orbit data is extracted from the following two-line orbital elements,

1 21263U 91032A   15141.49171053  .00000055  00000-0  41723-4 0  9992
2 21263 098.6313 168.8500 0013221 337.4138 124.6445 14.25759628248764
Epoch (UTC): 21 May 2015 11:48:03
Eccentricity: 0.0013221
inclination: 98.6313°
perigee height: 796 km
apogee height: 815 km
right ascension of ascending node: 168.8500°
argument of perigee: 337.4138°
revolutions per day: 14.25759628
mean anomaly at epoch: 124.6445°
orbit number at epoch: 24876

The dashed part of the orbit path shows where the satellite is in the earth's shadow,  

DLR